Weather in Kalnyk

Ukraine / Vinnytsia Region     49°02′15″N   29°23′13″E
temp.,
°C
wind,
m/s
gust,
m/s
humid.,
%
clouds,
%
prec.,
mm/h
press.,
hPa
HPBL,
m
20 may, fri
fri2000:00+10wnw4107612 0.0 1023168
03:00+9nw3383100 0.0 102342
06:00+9wnw338349 0.0 102242
09:00+16w466167 0.0 1022387
12:00+21w464679 0.0 10201343
15:00+23w5643100 0.0 10191870
18:00+21w4858100 0.0 1017569
21:00+17wsw3572100 0.0 101672
21 may, sat
sat2100:00+14w411785 0.0 1015205
03:00+14w41186100 0.3 1013227
06:00+13wsw41182100 0.0 1012222
09:00+19w71263100 0.0 1011523
12:00+20wsw61059100 0.0 1010815
15:00+24wnw8115771 0.2 10081676
18:00+20wnw714765 7.3 10081510
21:00+15nw714671 7.3 1010639
22 may, sun
sun2200:00+13wnw61370100 0.0 1010660
03:00+11wnw614742 0.0 1009460
06:00+10w714830 0.0 1007786
09:00+12wnw81476100 0.1 10061572
12:00+14wnw9146769 0.5 10051645
15:00+11nw91374100 0.7 10071162
18:00+10nw81279100 0.0 10071000
21:00+9nw61287100 0.1 1008771
23 may, mon
mon2300:00+9nw51088100 0.0 1008539
03:00+9nw5994100 0.3 1007550
06:00+8nne5794100 0.8 1008568
09:00+9nne797499 0.9 10101001
12:00+10nne6762100 0.0 10121248
15:00+13nne465582 0.1 10121597
18:00+13n565896 0.3 10121354
21:00+9nnw117847 0.4 101410
24 may, tue
tue2400:00+6nw118327 0.0 101510
03:00+6w11815 0.0 101610
06:00+6nnw228012 0.0 101713
09:00+13n33595 0.0 1017539
12:00+16n334121 0.0 10172149
15:00+18n323816 0.0 10172282
18:00+17nne32413 0.0 10171899
21:00+11ene45615 0.0 101957